[ hide orbit diagram ]
For accurate long-term ephemerides, please instead use our Horizons system.This orbit viewer was implemented using two-body methods, and hence should not be used for determining accurate long-term trajectories (over several years or decades) or planetary encounter circumstances.
[ revert to old Java-based viewer ]
Orbital Elements at Epoch 2458600.5 (2019-Apr-27.0) TDB
Reference: JPL 11 (heliocentric ecliptic J2000)
Element | Value | Uncertainty (1-sigma) | Units |
e | .1478389987356282 | 5.1653e-08 | |
a | 1.884524876101485 | 1.0989e-08 | au |
q | 1.605918605326257 | 9.8451e-08 | au |
i | 21.61080106340838 | 6.6761e-06 | deg |
node | 123.9857811122558 | 1.0982e-05 | deg |
peri | 320.4468561191284 | 2.5989e-05 | deg |
M | 196.5365786828847 | 2.7026e-05 | deg |
tp | 2459029.561278512270 (2020-Jun-29.06127851) | 7.2998e-05 | TDB |
period | 944.9334843222467 2.59 | 8.2654e-06 2.263e-08 | d yr |
n | .3809791969200985 | 3.3325e-09 | deg/d |
Q | 2.163131146876712 | 1.2614e-08 | au |
|
| | Orbit Determination Parameters
Additional Information
|
[ show covariance matrix ]
Physical Parameter Table
Parameter |
Symbol |
Value |
Units |
Sigma |
Reference |
Notes |
absolute magnitude |
H |
17.5 |
|
n/a |
MPO437487 |
|
|
351335 (2004 XB102) Discovered 2004-Dec-10 by CSS at Catalina |
Reference: 20130127/Numbers.arc | Last Updated: 2013-01-31 |
|
|